Regional Weather Roundup
Issued by NWS Upton, NY

Current Version | Previous Version | Graphics & Text | Print | Product List | Glossary Off
Versions: 1 2 3 4 5 6 7 8 9 10 11 12 13 14 15 16 17 18 19 20 21 22 23 24 25 26 27 28 29 30 31 32 33 34 35 36 37 38 39 40 41 42 43 44 45 46 47 48 49 50

000
ASUS41 KOKX 231105
RWROKX

REGIONAL WEATHER ROUNDUP
NATIONAL WEATHER SERVICE NEW YORK NY
700 AM EDT TUE SEP 23 2014

NOTE: "FAIR" INDICATES FEW OR NO CLOUDS BELOW 12,000 FEET WITH NO
SIGNIFICANT WEATHER AND/OR OBSTRUCTIONS TO VISIBILITY.

NYZ071-072-176-178-NJZ106-104-231200-
NEW YORK CITY METRO AREA


CITY           SKY/WX    TMP DP  RH WIND       PRES   REMARKS
CENTRAL PARK   CLEAR     53  39  59 N6        30.31R
LAGUARDIA APRT PTCLDY    54  41  61 N7        30.28R
KENNEDY INTL   PTCLDY    51  40  65 N6        30.29R
NEWARK/LIBERTY PTCLDY    52  40  63 CALM      30.28R
BRNX BOT. GARD   N/A     48  41  76 NE2       30.29R
TETERBORO      CLEAR     47  40  76 CALM      30.28R
$$

NYZ177-179-078>081-231200-
LONG ISLAND NEW YORK

CITY           SKY/WX    TMP DP  RH WIND       PRES   REMARKS
FARMINGDALE    CLEAR     50  42  74 NW3       30.28R
ISLIP          PTCLDY    52  43  71 N10       30.25R
SHIRLEY        CLEAR     50  43  77 N9        30.27R
WESTHAMPTON    CLEAR     44  37  76 N3        30.27R
MONTAUK POINT    N/A     55  41  59 VRB5      30.26R
$$

NYZ052-065-067-231200-
HUDSON VALLEY

CITY           SKY/WX    TMP DP  RH WIND       PRES   REMARKS
WHITE PLAINS   CLEAR     44  39  82 NW7       30.26R
NEWBURGH       CLEAR     41  39  93 CALM      30.28R
MONTGOMERY     CLEAR     39  37  92 CALM      30.27R
POUGHKEEPSIE   CLEAR     39  36  89 CALM      30.27R
ALBANY         PTCLDY    41  39  93 SW3       30.26R
$$

NJZ001-105-106-008-010-013-015-019>022-104-231200-
NEW JERSEY

CITY           SKY/WX    TMP DP  RH WIND       PRES   REMARKS
NEWARK/LIBERTY PTCLDY    52  40  63 CALM      30.28R
TETERBORO      CLEAR     47  40  76 CALM      30.28R
CALDWELL       CLEAR     43  38  82 CALM      30.29R
MORRISTOWN     CLEAR     39  39 100 CALM      30.28R
SOMERVILLE     CLEAR     38  37  97 CALM      30.28R
LINDEN         FAIR      53  43  70 CALM      30.30R
SUSSEX         CLEAR     42  38  85 W5        30.28R
ANDOVER          N/A     40  38  93 CALM      30.29R
TRENTON        CLEAR     45  40  82 NW5       30.28R
MILLVILLE      PTCLDY    40  38  93 CALM      30.29R
ATLANTIC CITY  PTCLDY    42  40  92 NW5       30.28R
WRIGHTSTOWN    CLEAR     45  40  82 N3        30.26R
TOMS RIVER     CLEAR     37  36  93 CALM      30.28S
BELMAR         CLEAR     45  37  76 NW5       30.28R
$$

PAZ047>061-062-071-231200-
EASTERN PENNSYLVANIA

CITY           SKY/WX    TMP DP  RH WIND       PRES   REMARKS
PHILADELPHIA   PTCLDY    51  41  68 NW5       30.30R
ALLENTOWN      CLEAR     42  38  85 CALM      30.29R
SCRANTON       CLEAR     42  39  89 E6        30.30R
$$

CTZ002-004>006-009-010-012-RIZ004-006-007-MAZ004-011-015-231200-
SOUTHERN NEW ENGLAND
 IN CT

CITY           SKY/WX    TMP DP  RH WIND       PRES   REMARKS
BRADLEY INTL   PTCLDY    45  40  82 W7        30.23R
HARTFORD       CLEAR     45  43  93 MISG      30.25R
DANBURY        CLEAR     40  38  93 SW3       30.28R
WTRBRY/OXFORD  PTCLDY    39  34  81 CALM      30.28R
BRIDGEPORT     CLEAR     48  42  80 NW5       30.27R
MERIDEN        CLEAR     39  37  92 CALM      30.26R
NEW HAVEN      CLEAR     51  43  74 NW5       30.27R
CHESTER        FAIR      46  41  81 W3        30.26R
GROTON         CLEAR     41  40  96 CALM      30.25R
WILLIMANTIC    FOG       40  39  97 CALM      30.25R VSB 1/4

 IN RI

CITY           SKY/WX    TMP DP  RH WIND       PRES   REMARKS
PROVIDENCE     PTCLDY    45  40  82 W5        30.24R
BLOCK ISLAND   CLEAR     54  37  54 N6        30.24R
WESTERLY       CLEAR     41  38  89 CALM      30.25R

 IN MA

CITY           SKY/WX    TMP DP  RH WIND       PRES   REMARKS
BOSTON         PTCLDY    52  38  58 W6        30.22R
WORCESTER      CLEAR     42  37  82 SW6       30.22R
WESTFIELD      CLEAR     38  35  89 CALM      30.24R
PROVINCETOWN   CLEAR     54  37  54 NW16G22   30.21R
NANTUCKET      CLEAR     53  41  63 NW8       30.21R
$$

ANZ330-335-338-340-345-350-353-355-231200-
COASTAL MARINE OBSERVATIONS


STATION/POSITION TIME  SKY/WX   TEMP    WIND        PRES    VSBY  WAVE
                                AIR SEA DIR/SP/G                  HT/PER
                 (UTC)          (F)     (DEG/KT/KT) (MB)    (MI)  (FT/S)
NY HARB ENTRANCE 1100            57 69   30/  6/  8 1025.4          2/ 8
4S FIRE IS       1100               69                N/A           3/ 8
20S FIRE ISLAND  1100            58 68   10/ 12/ 16 1024.6          3/ 8
23SW MTP         1100                                 N/A           3/ 9
HUDSON CANYON    1100            60 70  360/ 14/ 17 1023.8          4/ 6
EXECUTION ROCKS  1100            54 69  350/  8/ 10   N/A
WESTERN LI SOUND 1100            54     330/ 10/ 12   N/A           0
CENTRAL LI SOUND 1000            56 69  340/ 10/ 12   N/A           1/ 3
EASTERN LI SOUND 1000            54 67  320/ 10/ 12   N/A
ROBBINS REEF     1100            53     360/  7/  9 1024.2
$$


>>>>>>>>>>>>>>>>>>>>>>>>>>>> KEY <<<<<<<<<<<<<<<<<<<<<<<<<<<
>                                                          <
>     SKY/WX - SKY CONDITION/PRESENT WEATHER               <
>     TMP    - TEMPERATURE IN FAHRENHEIT                   <
>     DP     - DEWPOINT IN FAHRENHEIT                      <
>     RH     - RELATIVE HUMIDITY IN PERCENT                <
>     WIND   - DIRECTION AND SPEED IN MPH                  <
>     PRES   - MEAN SEA LEVEL PRESSURE IN INCHES OF HG     <
>     WCI    - WIND CHILL INDEX                            <
>     VSB    - VISIBILITY IN MILES                         <
>     HX     - HEAT INDEX                                  <
>     TC     - TEMPERATURE IN CELSIUS                      <
>     VRB    - VARIABLE WIND DIRECTION                     <
>                                                          <
>>>>>>>>>>>>>>>>>>>>>>>>>>>> KEY <<<<<<<<<<<<<<<<<<<<<<<<<<<





USA.gov is the U.S. government's official web portal to all federal, state and local government web resources and services.